Weather History for Valparaiso, IN

Change the Weather History Date:

Wednesday, March 26, 2014

  Actual Average Record
Temperature  
Mean Temperature 26 °F 42 °F  
Max Temperature 37 °F 51 °F 75 °F (1976)
Min Temperature 14 °F 32 °F 10 °F (1955)
Degree Days  
Heating Degree Days 39 24  
Month to date heating degree days 879 733  
Since 1 July heating degree days 6328 5465  
Cooling Degree Days 0 0  
Month to date cooling degree days 0 0  
Year to date cooling degree days 0 0  
Moisture  
Dew Point 11 °F    
Average Humidity 52    
Maximum Humidity 74    
Minimum Humidity 37    
Precipitation  
Precipitation 0.00 in 0.09 in 1.85 in (1970)
Month to date precipitation 0.61 2.03  
Year to date precipitation 3.24 5.20  
Sea Level Pressure  
Sea Level Pressure 30.25 in    
Wind  
Wind Speed 9 mph (SSW)    
Max Wind Speed 18 mph    
Max Gust Speed 25 mph    
Visibility 10 miles    
Events      
T = Trace of Precipitation, MM = Missing Value Source: NWS Daily Summary

Daily Weather History Graph

Daily Weather History Graph

Search for Another Location

Airport:

Trip Planner

Search our weather history database for the weather conditions in past years. The results will help you decide how hot, cold, wet, or windy it might be!

Date:

Astronomy

Mar. 26, 2014 Rise Set
Actual Time 6:41 AM CDT 7:06 PM CDT
Civil Twilight 6:13 AM CDT 7:34 PM CDT
Nautical Twilight 5:40 AM CDT 8:07 PM CDT
Astronomical Twilight 5:07 AM CDT 8:40 PM CDT
Moon 3:52 AM CDT (3/26) 2:42 PM CDT (3/26)
Length of Visible Light 13h 21m
Length of Day
12h 25m
Waning Crescent, 21% of the Moon is Illuminated
Mar 26
Waning Crescent
Mar 30
New
Apr 7
First Quarter
Apr 15
Full
Apr 22
Last Quarter

Hourly Weather History & Observations

Time (CDT) Temp. Windchill Dew Point Humidity Pressure Visibility Wind Dir Wind Speed Gust Speed Precip Events Conditions
12:53 AM 21.9 °F 12.5 °F 8.1 °F 55% 30.26 in 10.0 mi West 8.1 mph - N/A   Overcast
1:53 AM 21.0 °F 12.4 °F 9.0 °F 60% 30.27 in 10.0 mi West 6.9 mph - N/A   Overcast
2:53 AM 19.9 °F 13.4 °F 8.1 °F 60% 30.27 in 10.0 mi NW 4.6 mph - N/A   Overcast
3:53 AM 19.0 °F 13.9 °F 7.0 °F 59% 30.28 in 10.0 mi WNW 3.5 mph - N/A   Partly Cloudy
4:53 AM 17.1 °F 10.0 °F 9.0 °F 71% 30.29 in 10.0 mi West 4.6 mph - N/A   Clear
5:53 AM 16.0 °F 8.8 °F 9.0 °F 74% 30.31 in 10.0 mi WNW 4.6 mph - N/A   Clear
6:53 AM 15.1 °F - 8.1 °F 74% 30.33 in 10.0 mi Calm Calm - N/A   Clear
7:53 AM 19.0 °F 13.9 °F 10.9 °F 71% 30.35 in 10.0 mi WSW 3.5 mph - N/A   Clear
8:53 AM 23.0 °F - 9.0 °F 55% 30.35 in 10.0 mi Calm Calm - N/A   Clear
9:53 AM 25.0 °F 19.3 °F 9.0 °F 51% 30.37 in 10.0 mi SSW 4.6 mph - N/A   Clear
10:53 AM 27.0 °F 18.0 °F 10.0 °F 49% 30.36 in 10.0 mi South 9.2 mph - N/A   Clear
11:53 AM 28.9 °F 19.2 °F 9.0 °F 43% 30.34 in 10.0 mi SSW 11.5 mph - N/A   Clear
12:53 PM 30.9 °F 21.7 °F 10.0 °F 42% 30.31 in 10.0 mi South 11.5 mph - N/A   Clear
1:53 PM 33.1 °F 23.9 °F 12.0 °F 42% 30.28 in 10.0 mi SSW 12.7 mph 18.4 mph N/A   Clear
2:53 PM 34.0 °F 24.2 °F 10.9 °F 38% 30.25 in 10.0 mi South 15.0 mph 19.6 mph N/A   Clear
3:53 PM 35.1 °F 26.4 °F 10.9 °F 37% 30.22 in 10.0 mi SSW 12.7 mph 19.6 mph N/A   Clear
4:53 PM 36.0 °F 27.5 °F 12.0 °F 37% 30.20 in 10.0 mi SSW 12.7 mph - N/A   Clear
5:53 PM 36.0 °F 28.0 °F 12.9 °F 39% 30.19 in 10.0 mi South 11.5 mph - N/A   Clear
6:53 PM 34.0 °F 27.2 °F 15.1 °F 46% 30.18 in 10.0 mi South 8.1 mph - N/A   Clear
7:53 PM 34.0 °F 28.0 °F 17.1 °F 50% 30.17 in 10.0 mi South 6.9 mph - N/A   Overcast
8:53 PM 34.0 °F 26.6 °F 16.0 °F 48% 30.14 in 10.0 mi South 9.2 mph 19.6 mph N/A   Overcast
9:53 PM 34.0 °F 26.6 °F 17.1 °F 50% 30.12 in 10.0 mi SSE 9.2 mph - N/A   Overcast
10:53 PM 35.1 °F 26.4 °F 16.0 °F 46% 30.10 in 10.0 mi South 12.7 mph - N/A   Overcast
11:53 PM 35.1 °F 25.9 °F 16.0 °F 46% 30.09 in 10.0 mi South 13.8 mph - N/A   Overcast